| time (UTC) | temp C | wind direction | speed KPH | gust KPH | rain 1hr cm | rain 24hr cm | rain mn cm | humidity % | barometer mb |
| 20260506200038 | 17 | 300 | 4.8 | 19.3 | 0.00 | 0.00 | 0.00 | 25 | 1012.7 |
| 20260506194539 | 17 | 242 | 6.4 | 16.1 | 0.00 | 0.00 | 0.00 | 24 | 1013.0 |
| 20260506193034 | 16 | 283 | 4.8 | 17.7 | 0.00 | 0.00 | 0.00 | 25 | 1013.2 |
| 20260506191534 | 16 | 238 | 6.4 | 17.7 | 0.00 | 0.00 | 0.00 | 26 | 1013.4 |
| 20260506190023 | 15 | 224 | 8.0 | 19.3 | 0.00 | 0.00 | 0.00 | 26 | 1013.6 |
| 20260506184526 | 15 | 181 | 8.0 | 19.3 | 0.00 | 0.00 | 0.00 | 28 | 1014.0 |
| 20260506183017 | 14 | 238 | 9.7 | 16.1 | 0.00 | 0.00 | 0.00 | 27 | 1014.3 |
| 20260506181513 | 13 | 245 | 11.3 | 19.3 | 0.00 | 0.00 | 0.00 | 28 | 1014.6 |
| 20260506180017 | 13 | 198 | 9.7 | 19.3 | 0.00 | 0.00 | 0.00 | 26 | 1014.9 |
| 20260506174506 | 13 | 243 | 8.0 | 20.9 | 0.00 | 0.00 | 0.00 | 26 | 1015.1 |
| 20260506173002 | 12 | 139 | 4.8 | 20.9 | 0.00 | 0.00 | 0.00 | 25 | 1015.4 |
| 20260506171604 | 12 | 240 | 8.0 | 20.9 | 0.00 | 0.00 | 0.00 | 29 | 1015.6 |
| 20260506170059 | 11 | 223 | 9.7 | 17.7 | 0.00 | 0.00 | 0.00 | 29 | 1016.0 |
| 20260506164557 | 11 | 230 | 6.4 | 16.1 | 0.00 | 0.00 | 0.00 | 34 | 1016.2 |
| 20260506163048 | 10 | 186 | 6.4 | 16.1 | 0.00 | 0.00 | 0.00 | 36 | 1016.3 |
| 20260506161542 | 9 | 162 | 4.8 | 12.9 | 0.00 | 0.00 | 0.00 | 39 | 1016.6 |
| 20260506160041 | 9 | 160 | 8.0 | 12.9 | 0.00 | 0.00 | 0.00 | 40 | 1016.7 |
| 20260506154532 | 8 | 198 | 6.4 | 11.3 | 0.00 | 0.00 | 0.00 | 43 | 1017.1 |
| 20260506153027 | 7 | 217 | 6.4 | 12.9 | 0.00 | 0.00 | 0.00 | 46 | 1017.4 |
| 20260506151531 | 6 | 213 | 4.8 | 11.3 | 0.00 | 0.00 | 0.00 | 46 | 1017.6 |
| 20260506150022 | 6 | 240 | 6.4 | 11.3 | 0.00 | 0.00 | 0.00 | 48 | 1017.7 |
| 20260506144515 | 5 | 261 | 1.6 | 9.7 | 0.00 | 0.00 | 0.00 | 48 | 1017.8 |
| 20260506143017 | 5 | 188 | 1.6 | 6.4 | 0.00 | 0.00 | 0.00 | 47 | 1018.0 |
| 20260506141509 | 4 | 154 | 0.0 | 4.8 | 0.00 | 0.00 | 0.00 | 47 | 1018.2 |
| 20260506140008 | 3 | 172 | 0.0 | 3.2 | 0.00 | 0.00 | 0.00 | 47 | 1018.3 |
| 20260506134501 | 2 | 339 | 0.0 | 0.0 | 0.00 | 0.00 | 0.00 | 55 | 1018.4 |
| 20260506133103 | 0 | 338 | 0.0 | 0.0 | 0.00 | 0.00 | 0.00 | 59 | 1018.4 |
| 20260506131552 | -2 | 346 | 0.0 | 0.0 | 0.00 | 0.00 | 0.00 | 64 | 1018.3 |
| 20260506130050 | -3 | 346 | 0.0 | 1.6 | 0.00 | 0.00 | 0.00 | 65 | 1018.5 |
| 20260506124542 | -4 | 350 | 0.0 | 1.6 | 0.00 | 0.00 | 0.00 | 68 | 1018.7 |
| 20260506123040 | -6 | 350 | 0.0 | 1.6 | 0.00 | 0.00 | 0.00 | 70 | 1018.7 |
| 20260506121542 | -6 | 2 | 0.0 | 4.8 | 0.00 | 0.00 | 0.00 | 72 | 1018.8 |
| 20260506120039 | -7 | 320 | 0.0 | 0.0 | 0.00 | 0.00 | 0.00 | 74 | 1018.9 |
| 20260506114534 | -7 | 323 | 0.0 | 0.0 | 0.00 | 0.00 | 0.00 | 73 | 1019.0 |
| 20260506113042 | -7 | 324 | 0.0 | 0.0 | 0.00 | 0.00 | 0.00 | 74 | 1019.1 |
| 20260506111531 | -7 | 300 | 0.0 | 0.0 | 0.00 | 0.00 | 0.00 | 71 | 1019.4 |
| 20260506110034 | -7 | 286 | 0.0 | 0.0 | 0.00 | 0.00 | 0.00 | 73 | 1019.5 |
| 20260506104525 | -7 | 294 | 0.0 | 0.0 | 0.00 | 0.00 | 0.00 | 72 | 1019.6 |
| 20260506103030 | -7 | 294 | 0.0 | 0.0 | 0.00 | 0.00 | 0.00 | 72 | 1019.7 |
| 20260506101533 | -7 | 294 | 0.0 | 0.0 | 0.00 | 0.00 | 0.00 | 71 | 1019.8 |
| 20260506100030 | -7 | 294 | 0.0 | 1.6 | 0.00 | 0.00 | 0.00 | 71 | 1020.1 |
| 20260506094519 | -7 | 300 | 0.0 | 1.6 | 0.00 | 0.00 | 0.00 | 71 | 1020.2 |
| 20260506093018 | -7 | 300 | 0.0 | 3.2 | 0.00 | 0.00 | 0.00 | 71 | 1020.3 |
| 20260506091518 | -7 | 293 | 0.0 | 0.0 | 0.00 | 0.00 | 0.00 | 71 | 1020.3 |
| 20260506090012 | -7 | 293 | 0.0 | 0.0 | 0.00 | 0.00 | 0.00 | 68 | 1020.4 |
| 20260506084510 | -6 | 293 | 0.0 | 3.2 | 0.00 | 0.00 | 0.00 | 68 | 1020.5 |
| 20260506083009 | -6 | 277 | 0.0 | 0.0 | 0.00 | 0.00 | 0.00 | 68 | 1020.6 |
| 20260506081502 | -6 | 295 | 0.0 | 0.0 | 0.00 | 0.00 | 0.00 | 69 | 1020.7 |
| 20260506073055 | -6 | 288 | 0.0 | 0.0 | 0.00 | 0.00 | 0.00 | 65 | 1021.0 |
| 20260506071554 | -5 | 288 | 0.0 | 0.0 | 0.00 | 0.00 | 0.00 | 65 | 1021.0 |
| 20260506061543 | -5 | 260 | 0.0 | 0.0 | 0.00 | 0.00 | 0.00 | 61 | 1021.3 |
| 20260506044533 | -3 | 286 | 0.0 | 1.6 | 0.00 | 0.00 | 0.00 | 57 | 1021.4 |
| 20260506043028 | -3 | 286 | 1.6 | 1.6 | 0.00 | 0.00 | 0.00 | 56 | 1021.4 |
| 20260506041527 | -2 | 293 | 0.0 | 1.6 | 0.00 | 0.00 | 0.00 | 55 | 1021.5 |
| 20260506040035 | -2 | 297 | 0.0 | 1.6 | 0.00 | 0.00 | 0.00 | 52 | 1021.6 |
| 20260506034522 | -1 | 297 | 0.0 | 1.6 | 0.00 | 0.00 | 0.00 | 50 | 1021.4 |
| 20260506033050 | -1 | 357 | 0.0 | 1.6 | 0.00 | 0.00 | 0.00 | 48 | 1021.4 |
| 20260506031547 | 0 | 328 | 0.0 | 1.6 | 0.00 | 0.00 | 0.00 | 46 | 1021.3 |
| 20260506030015 | 2 | 360 | 1.6 | 4.8 | 0.00 | 0.00 | 0.00 | 42 | 1021.2 |
| 20260506024515 | 3 | 18 | 3.2 | 4.8 | 0.00 | 0.00 | 0.00 | 40 | 1021.3 |
| 20260506023056 | 5 | 7 | 3.2 | 9.7 | 0.00 | 0.00 | 0.00 | 38 | 1021.3 |
| 20260506021554 | 6 | 25 | 11.3 | 17.7 | 0.00 | 0.00 | 0.00 | 36 | 1021.1 |
| 20260506020042 | 6 | 22 | 12.9 | 19.3 | 0.00 | 0.00 | 0.00 | 36 | 1021.0 |
| 20260506014544 | 7 | 22 | 16.1 | 27.4 | 0.00 | 0.00 | 0.00 | 35 | 1021.0 |
| 20260506013039 | 7 | 352 | 14.5 | 25.7 | 0.00 | 0.00 | 0.00 | 34 | 1021.0 |
| 20260506011539 | 7 | 25 | 19.3 | 29.0 | 0.00 | 0.00 | 0.00 | 33 | 1020.9 |
| 20260506010047 | 8 | 36 | 20.9 | 30.6 | 0.00 | 0.00 | 0.00 | 33 | 1020.8 |
| 20260506004539 | 8 | 346 | 16.1 | 29.0 | 0.00 | 0.00 | 0.00 | 32 | 1020.8 |
| 20260506003036 | 8 | 22 | 20.9 | 32.2 | 0.00 | 0.00 | 0.00 | 33 | 1020.7 |
| 20260506001635 | 8 | 20 | 22.5 | 30.6 | 0.00 | 0.00 | 0.00 | 33 | 1020.7 |
| 20260506000032 | 9 | 347 | 12.9 | 33.8 | 0.00 | 0.00 | 0.00 | 32 | 1020.6 |
| 20260505234554 | 9 | 16 | 27.4 | 40.2 | 0.00 | 0.00 | 0.00 | 32 | 1020.7 |
| 20260505233037 | 9 | 338 | 12.9 | 32.2 | 0.00 | 0.00 | 0.00 | 32 | 1020.7 |
| 20260505231532 | 9 | 337 | 19.3 | 37.0 | 0.00 | 0.00 | 0.00 | 32 | 1020.7 |
| 20260505224558 | 9 | 12 | 22.5 | 32.2 | 0.00 | 0.00 | 0.00 | 32 | 1020.7 |
| 20260505223055 | 9 | 323 | 19.3 | 29.0 | 0.00 | 0.00 | 0.00 | 32 | 1020.8 |
| 20260505221555 | 9 | 327 | 17.7 | 30.6 | 0.00 | 0.00 | 0.00 | 31 | 1020.8 |
| 20260505220053 | 9 | 327 | 12.9 | 32.2 | 0.00 | 0.00 | 0.00 | 31 | 1020.7 |
| 20260505214613 | 9 | 338 | 19.3 | 32.2 | 0.00 | 0.00 | 0.00 | 30 | 1020.6 |
| 20260505213059 | 9 | 332 | 17.7 | 35.4 | 0.00 | 0.00 | 0.00 | 32 | 1020.6 |
| 20260505211549 | 9 | 352 | 16.1 | 37.0 | 0.00 | 0.00 | 0.00 | 33 | 1020.7 |
| 20260505210056 | 9 | 5 | 24.1 | 33.8 | 0.00 | 0.00 | 0.00 | 32 | 1020.7 |
| 20260505204556 | 9 | 311 | 11.3 | 38.6 | 0.00 | 0.00 | 0.00 | 34 | 1020.9 |
| 20260505203051 | 9 | 328 | 19.3 | 35.4 | 0.00 | 0.00 | 0.00 | 35 | 1021.0 |
| 20260505201545 | 9 | 345 | 22.5 | 33.8 | 0.00 | 0.00 | 0.00 | 35 | 1021.1 |
| 20260505200058 | 8 | 340 | 22.5 | 38.6 | 0.00 | 0.00 | 0.00 | 35 | 1021.2 |